TimeEDT,TemperatureF,Dew PointF,Humidity,Sea Level PressureIn,VisibilityMPH,Wind Direction,Wind SpeedMPH,Gust SpeedMPH,PrecipitationIn,Events,Conditions,WindDirDegrees,DateUTC
12:15 AM,39.7,28.6,64,30.27,10.0,SSW,9.2,-,N/A,,Clear,210,2012-03-11 05:15:00
12:34 AM,41.2,28.4,60,30.27,10.0,SSW,11.5,-,N/A,,Clear,210,2012-03-11 05:34:00
12:54 AM,41.0,28.4,61,30.27,10.0,SSW,9.2,-,N/A,,Clear,210,2012-03-11 05:54:00
1:15 AM,40.1,28.4,63,30.27,10.0,SSW,9.2,-,N/A,,Clear,210,2012-03-11 06:15:00
1:34 AM,39.4,28.4,65,30.27,10.0,SSW,8.1,-,N/A,,Clear,210,2012-03-11 06:34:00
1:54 AM,38.5,28.2,67,30.27,10.0,SSW,8.1,-,N/A,,Clear,200,2012-03-11 06:54:00
3:15 AM,37.4,28.4,70,30.28,10.0,SSW,8.1,-,N/A,,Clear,210,2012-03-11 07:15:00
3:34 AM,37.0,28.4,71,30.27,10.0,SSW,8.1,-,N/A,,Clear,200,2012-03-11 07:34:00
3:55 AM,36.5,28.2,72,30.27,10.0,SSW,6.9,-,N/A,,Clear,200,2012-03-11 07:55:00
4:15 AM,35.1,27.5,74,30.27,10.0,SSW,4.6,-,N/A,,Clear,200,2012-03-11 08:15:00
4:34 AM,34.3,27.3,76,30.27,10.0,South,4.6,-,N/A,,Clear,190,2012-03-11 08:34:00
4:55 AM,33.8,27.3,77,30.27,10.0,South,3.5,-,N/A,,Clear,180,2012-03-11 08:55:00
5:14 AM,32.0,26.4,80,30.28,10.0,South,4.6,-,N/A,,Clear,190,2012-03-11 09:14:00
5:34 AM,30.9,26.4,83,30.28,10.0,South,5.8,-,N/A,,Clear,190,2012-03-11 09:34:00
5:55 AM,31.6,26.8,82,30.29,10.0,SSW,5.8,-,N/A,,Clear,200,2012-03-11 09:55:00
6:14 AM,33.1,27.9,81,30.29,10.0,SSW,6.9,-,N/A,,Clear,200,2012-03-11 10:14:00
6:34 AM,33.4,27.7,79,30.29,10.0,SSW,5.8,-,N/A,,Clear,200,2012-03-11 10:34:00
6:55 AM,32.4,27.0,80,30.29,10.0,South,5.8,-,N/A,,Clear,190,2012-03-11 10:55:00
7:14 AM,32.0,27.0,82,30.29,10.0,South,5.8,-,N/A,,Clear,190,2012-03-11 11:14:00
7:55 AM,31.8,26.4,80,30.30,10.0,South,5.8,-,N/A,,Clear,180,2012-03-11 11:55:00
8:35 AM,32.9,27.7,81,30.30,10.0,South,4.6,-,N/A,,Clear,190,2012-03-11 12:35:00
8:55 AM,35.6,29.7,79,30.30,10.0,SSW,5.8,-,N/A,,Clear,200,2012-03-11 12:55:00
9:14 AM,38.5,30.2,72,30.31,10.0,SSW,5.8,-,N/A,,Clear,200,2012-03-11 13:14:00
9:35 AM,41.0,30.0,65,30.32,10.0,SSW,8.1,-,N/A,,Clear,200,2012-03-11 13:35:00
9:55 AM,42.8,30.0,61,30.32,10.0,SSW,6.9,-,N/A,,Clear,200,2012-03-11 13:55:00
10:14 AM,43.9,30.4,59,30.32,10.0,SSW,10.4,-,N/A,,Clear,200,2012-03-11 14:14:00
10:34 AM,45.7,30.7,56,30.32,10.0,SSW,6.9,-,N/A,,Clear,200,2012-03-11 14:34:00
10:54 AM,48.2,30.9,51,30.32,10.0,SSW,9.2,-,N/A,,Clear,200,2012-03-11 14:54:00
11:15 AM,50.2,30.7,47,30.32,10.0,South,9.2,-,N/A,,Clear,190,2012-03-11 15:15:00
11:34 AM,52.5,31.3,44,30.32,10.0,SSW,9.2,-,N/A,,Clear,200,2012-03-11 15:34:00
11:54 AM,54.5,31.3,41,30.32,10.0,SSW,9.2,-,N/A,,Clear,210,2012-03-11 15:54:00
12:15 PM,56.5,31.3,38,30.32,10.0,SSW,12.7,16.1,N/A,,Clear,210,2012-03-11 16:15:00
12:34 PM,57.4,30.9,37,30.31,10.0,SW,10.4,-,N/A,,Clear,230,2012-03-11 16:34:00
12:55 PM,58.8,31.6,36,30.30,10.0,SSW,6.9,-,N/A,,Clear,200,2012-03-11 16:55:00
1:14 PM,59.7,30.9,34,30.29,10.0,SW,3.5,-,N/A,,Clear,220,2012-03-11 17:14:00
1:34 PM,61.0,31.5,33,30.29,10.0,SW,6.9,-,N/A,,Clear,220,2012-03-11 17:34:00
1:55 PM,61.0,31.8,33,30.28,10.0,South,10.4,-,N/A,,Clear,190,2012-03-11 17:55:00
2:15 PM,62.4,32.0,32,30.27,10.0,SSW,11.5,-,N/A,,Clear,210,2012-03-11 18:15:00
2:34 PM,62.8,31.1,30,30.26,10.0,SW,11.5,-,N/A,,Clear,220,2012-03-11 18:34:00
2:55 PM,63.9,32.2,31,30.25,10.0,SSW,10.4,-,N/A,,Clear,210,2012-03-11 18:55:00
3:14 PM,63.9,31.3,29,30.24,10.0,SW,11.5,-,N/A,,Clear,220,2012-03-11 19:14:00
3:34 PM,63.0,31.5,31,30.24,10.0,SSW,13.8,17.3,N/A,,Clear,200,2012-03-11 19:34:00
4:14 PM,63.7,32.0,31,30.23,10.0,SSW,12.7,17.3,N/A,,Clear,200,2012-03-11 20:14:00
4:35 PM,64.2,33.3,32,30.22,10.0,SSW,8.1,-,N/A,,Clear,200,2012-03-11 20:35:00
4:55 PM,63.9,33.1,32,30.20,10.0,SSW,9.2,-,N/A,,Clear,210,2012-03-11 20:55:00
5:35 PM,64.4,34.3,33,30.18,10.0,South,11.5,-,N/A,,Clear,190,2012-03-11 21:35:00
5:55 PM,64.9,34.7,33,30.17,10.0,South,5.8,-,N/A,,Clear,180,2012-03-11 21:55:00
6:14 PM,62.6,34.2,35,30.17,10.0,South,9.2,-,N/A,,Clear,190,2012-03-11 22:14:00
6:54 PM,62.6,36.3,38,30.17,10.0,South,6.9,-,N/A,,Clear,170,2012-03-11 22:54:00
7:35 PM,59.7,36.1,41,30.17,10.0,South,8.1,-,N/A,,Clear,180,2012-03-11 23:35:00
7:54 PM,57.6,36.0,44,30.17,10.0,South,6.9,-,N/A,,Clear,170,2012-03-11 23:54:00
8:14 PM,59.0,35.6,42,30.17,10.0,SSE,5.8,-,N/A,,Clear,150,2012-03-12 00:14:00
8:35 PM,56.7,36.5,47,30.17,10.0,South,6.9,-,N/A,,Clear,170,2012-03-12 00:35:00
9:15 PM,54.9,36.5,50,30.17,10.0,SSE,5.8,-,N/A,,Clear,160,2012-03-12 01:15:00
9:35 PM,52.5,36.3,54,30.17,10.0,South,5.8,-,N/A,,Clear,170,2012-03-12 01:35:00
9:54 PM,54.1,36.7,52,30.16,10.0,SSE,5.8,-,N/A,,Clear,160,2012-03-12 01:54:00
10:15 PM,52.9,37.0,55,30.17,10.0,South,5.8,-,N/A,,Clear,170,2012-03-12 02:15:00
10:34 PM,54.0,37.4,54,30.16,10.0,SSE,9.2,-,N/A,,Clear,160,2012-03-12 02:34:00
10:54 PM,53.6,37.6,55,30.17,10.0,South,8.1,-,N/A,,Clear,170,2012-03-12 02:54:00
11:15 PM,52.3,37.4,57,30.16,10.0,SSE,6.9,-,N/A,,Clear,160,2012-03-12 03:15:00
11:34 PM,53.2,37.4,55,30.16,10.0,SSE,6.9,-,N/A,,Clear,160,2012-03-12 03:34:00
11:54 PM,54.1,37.4,53,30.16,10.0,SSE,5.8,-,N/A,,Clear,150,2012-03-12 03:54:00
12:15 AM,52.9,37.4,56,30.15,10.0,SE,3.5,-,N/A,,Clear,130,2012-03-12 04:15:00
12:34 AM,51.8,37.8,59,30.14,10.0,ESE,5.8,-,N/A,,Clear,120,2012-03-12 04:34:00
12:55 AM,53.1,38.3,57,30.13,10.0,SE,4.6,-,N/A,,Clear,130,2012-03-12 04:55:00